| time (UTC) | temp C | wind direction | speed KPH | gust KPH | rain 1hr cm | rain 24hr cm | rain mn cm | humidity % | barometer mb |
| 20260506223037 | 14 | 259 | 11.3 | 22.5 | 0.00 | 0.00 | 0.00 | 72 | 1014.4 |
| 20260506222535 | 14 | 239 | 4.8 | 19.3 | 0.00 | 0.00 | 0.00 | 73 | 1014.4 |
| 20260506222035 | 14 | 271 | 6.4 | 19.3 | 0.00 | 0.00 | 0.00 | 74 | 1014.4 |
| 20260506221534 | 13 | 232 | 6.4 | 22.5 | 0.00 | 0.00 | 0.00 | 74 | 1014.4 |
| 20260506221034 | 13 | 262 | 8.0 | 24.1 | 0.00 | 0.00 | 0.00 | 75 | 1014.3 |
| 20260506220532 | 13 | 247 | 9.7 | 24.1 | 0.00 | 0.00 | 0.00 | 76 | 1014.4 |
| 20260506220036 | 13 | 262 | 11.3 | 22.5 | 0.00 | 0.00 | 0.00 | 77 | 1014.3 |
| 20260506215529 | 13 | 234 | 9.7 | 22.5 | 0.00 | 0.00 | 0.00 | 77 | 1014.2 |
| 20260506215029 | 13 | 296 | 9.7 | 19.3 | 0.00 | 0.00 | 0.00 | 78 | 1014.2 |
| 20260506214528 | 13 | 227 | 6.4 | 22.5 | 0.00 | 0.00 | 0.00 | 79 | 1014.1 |
| 20260506214028 | 13 | 229 | 9.7 | 22.5 | 0.00 | 0.00 | 0.00 | 78 | 1014.1 |
| 20260506213526 | 13 | 233 | 9.7 | 19.3 | 0.00 | 0.00 | 0.00 | 79 | 1014.1 |
| 20260506213026 | 13 | 230 | 8.0 | 24.1 | 0.00 | 0.00 | 0.00 | 79 | 1013.9 |
| 20260506212525 | 13 | 360 | 12.9 | 25.7 | 0.00 | 0.00 | 0.00 | 79 | 1013.8 |
| 20260506212024 | 13 | 230 | 14.5 | 25.7 | 0.00 | 0.00 | 0.00 | 81 | 1013.7 |
| 20260506211522 | 13 | 221 | 11.3 | 20.9 | 0.00 | 0.00 | 0.00 | 82 | 1013.6 |
| 20260506211020 | 13 | 239 | 8.0 | 22.5 | 0.00 | 0.00 | 0.00 | 84 | 1013.6 |
| 20260506210522 | 12 | 275 | 12.9 | 22.5 | 0.00 | 0.00 | 0.00 | 86 | 1013.5 |
| 20260506210019 | 12 | 263 | 9.7 | 17.7 | 0.00 | 0.00 | 0.00 | 86 | 1013.6 |
| 20260506205516 | 12 | 294 | 4.8 | 11.3 | 0.00 | 0.00 | 0.00 | 86 | 1013.6 |
| 20260506205014 | 12 | 281 | 3.2 | 9.7 | 0.00 | 0.00 | 0.00 | 86 | 1013.6 |
| 20260506204512 | 12 | 284 | 3.2 | 9.7 | 0.00 | 0.00 | 0.00 | 86 | 1013.5 |
| 20260506204010 | 12 | 273 | 4.8 | 14.5 | 0.00 | 0.00 | 0.00 | 86 | 1013.4 |
| 20260506203510 | 12 | 294 | 6.4 | 16.1 | 0.00 | 0.00 | 0.00 | 86 | 1013.3 |
| 20260506203010 | 12 | 264 | 6.4 | 16.1 | 0.00 | 0.00 | 0.00 | 86 | 1013.2 |
| 20260506202511 | 12 | 287 | 3.2 | 14.5 | 0.00 | 0.00 | 0.00 | 87 | 1013.0 |
| 20260506202007 | 12 | 302 | 4.8 | 14.5 | 0.00 | 0.00 | 0.00 | 87 | 1012.9 |
| 20260506201509 | 12 | 257 | 4.8 | 14.5 | 0.00 | 0.00 | 0.00 | 88 | 1013.1 |
| 20260506201006 | 12 | 263 | 4.8 | 16.1 | 0.00 | 0.00 | 0.00 | 89 | 1013.1 |
| 20260506200505 | 11 | 239 | 4.8 | 16.1 | 0.00 | 0.00 | 0.00 | 89 | 1012.9 |
| 20260506200008 | 11 | 294 | 0.0 | 4.8 | 0.00 | 0.00 | 0.00 | 89 | 1012.8 |
| 20260506195504 | 11 | 45 | 0.0 | 3.2 | 0.00 | 0.00 | 0.00 | 88 | 1012.7 |
| 20260506195003 | 12 | 45 | 1.6 | 6.4 | 0.00 | 0.00 | 0.00 | 88 | 1012.7 |
| 20260506194502 | 12 | 323 | 0.0 | 6.4 | 0.00 | 0.00 | 0.00 | 88 | 1012.6 |
| 20260506194001 | 12 | 299 | 0.0 | 11.3 | 0.00 | 0.00 | 0.00 | 88 | 1012.7 |
| 20260506193501 | 12 | 306 | 3.2 | 11.3 | 0.00 | 0.00 | 0.00 | 88 | 1012.6 |
| 20260506193002 | 12 | 289 | 3.2 | 11.3 | 0.00 | 0.00 | 0.00 | 88 | 1012.5 |
| 20260506192600 | 12 | 273 | 4.8 | 11.3 | 0.00 | 0.00 | 0.00 | 89 | 1012.4 |
| 20260506192100 | 12 | 277 | 4.8 | 12.9 | 0.00 | 0.00 | 0.00 | 89 | 1012.3 |
| 20260506191600 | 12 | 296 | 4.8 | 12.9 | 0.00 | 0.00 | 0.00 | 89 | 1012.4 |
| 20260506191058 | 12 | 252 | 3.2 | 12.9 | 0.00 | 0.00 | 0.00 | 89 | 1012.2 |
| 20260506190559 | 12 | 265 | 3.2 | 12.9 | 0.00 | 0.00 | 0.00 | 89 | 1012.3 |
| 20260506190057 | 12 | 273 | 6.4 | 12.9 | 0.00 | 0.00 | 0.00 | 90 | 1012.4 |
| 20260506185555 | 12 | 271 | 3.2 | 14.5 | 0.00 | 0.00 | 0.00 | 90 | 1012.4 |
| 20260506185055 | 12 | 293 | 6.4 | 16.1 | 0.00 | 0.00 | 0.00 | 90 | 1012.5 |
| 20260506184558 | 12 | 281 | 8.0 | 16.1 | 0.00 | 0.00 | 0.00 | 90 | 1012.6 |
| 20260506184055 | 13 | 290 | 8.0 | 16.1 | 0.00 | 0.00 | 0.00 | 90 | 1012.5 |
| 20260506183555 | 13 | 253 | 6.4 | 14.5 | 0.00 | 0.00 | 0.00 | 91 | 1012.5 |
| 20260506183053 | 13 | 284 | 3.2 | 14.5 | 0.00 | 0.00 | 0.00 | 91 | 1012.5 |
| 20260506182554 | 13 | 295 | 4.8 | 14.5 | 0.00 | 0.00 | 0.00 | 92 | 1012.5 |
| 20260506182049 | 13 | 277 | 4.8 | 14.5 | 0.00 | 0.00 | 0.00 | 92 | 1012.5 |
| 20260506181549 | 13 | 275 | 6.4 | 14.5 | 0.00 | 0.00 | 0.00 | 92 | 1012.5 |
| 20260506181046 | 13 | 250 | 4.8 | 17.7 | 0.00 | 0.00 | 0.00 | 92 | 1012.5 |
| 20260506180545 | 14 | 265 | 8.0 | 17.7 | 0.00 | 0.00 | 0.00 | 92 | 1012.5 |
| 20260506180045 | 14 | 246 | 9.7 | 17.7 | 0.00 | 0.00 | 0.00 | 92 | 1012.4 |
| 20260506175544 | 14 | 271 | 11.3 | 17.7 | 0.00 | 0.00 | 0.00 | 93 | 1012.4 |
| 20260506175042 | 14 | 268 | 8.0 | 16.1 | 0.00 | 0.00 | 0.00 | 92 | 1012.4 |
| 20260506174542 | 14 | 302 | 8.0 | 16.1 | 0.00 | 0.00 | 0.00 | 92 | 1012.4 |
| 20260506174043 | 15 | 259 | 8.0 | 17.7 | 0.00 | 0.00 | 0.00 | 92 | 1012.4 |
| 20260506173542 | 15 | 248 | 8.0 | 17.7 | 0.00 | 0.00 | 0.00 | 92 | 1012.3 |
| 20260506173048 | 15 | 259 | 9.7 | 16.1 | 0.00 | 0.00 | 0.00 | 92 | 1012.4 |
| 20260506172537 | 15 | 290 | 8.0 | 16.1 | 0.00 | 0.00 | 0.00 | 91 | 1012.4 |
| 20260506172036 | 15 | 286 | 8.0 | 16.1 | 0.00 | 0.00 | 0.00 | 91 | 1012.4 |
| 20260506171549 | 15 | 252 | 9.7 | 16.1 | 0.00 | 0.00 | 0.00 | 91 | 1012.4 |
| 20260506171035 | 15 | 284 | 8.0 | 16.1 | 0.00 | 0.00 | 0.00 | 91 | 1012.4 |
| 20260506170533 | 15 | 257 | 6.4 | 19.3 | 0.00 | 0.00 | 0.00 | 91 | 1012.5 |
| 20260506170033 | 15 | 220 | 9.7 | 19.3 | 0.00 | 0.00 | 0.00 | 91 | 1012.6 |
| 20260506165536 | 16 | 288 | 8.0 | 14.5 | 0.00 | 0.00 | 0.00 | 90 | 1012.6 |
| 20260506165033 | 16 | 258 | 8.0 | 16.1 | 0.00 | 0.00 | 0.00 | 90 | 1012.7 |
| 20260506164532 | 16 | 297 | 9.7 | 16.1 | 0.00 | 0.00 | 0.00 | 89 | 1012.7 |
| 20260506164031 | 16 | 277 | 9.7 | 19.3 | 0.00 | 0.00 | 0.00 | 89 | 1012.7 |
| 20260506163532 | 16 | 261 | 9.7 | 19.3 | 0.00 | 0.00 | 0.00 | 89 | 1012.7 |
| 20260506163046 | 16 | 239 | 9.7 | 17.7 | 0.00 | 0.00 | 0.00 | 89 | 1012.8 |
| 20260506162532 | 16 | 301 | 6.4 | 16.1 | 0.00 | 0.00 | 0.00 | 90 | 1012.8 |
| 20260506162033 | 16 | 253 | 8.0 | 16.1 | 0.00 | 0.00 | 0.00 | 90 | 1012.8 |
| 20260506161530 | 16 | 247 | 6.4 | 14.5 | 0.00 | 0.00 | 0.00 | 90 | 1012.9 |
| 20260506161027 | 16 | 260 | 4.8 | 14.5 | 0.00 | 0.00 | 0.00 | 91 | 1012.9 |
| 20260506160527 | 16 | 233 | 8.0 | 12.9 | 0.00 | 0.00 | 0.00 | 92 | 1012.9 |
| 20260506160027 | 16 | 260 | 3.2 | 8.0 | 0.00 | 0.00 | 0.00 | 92 | 1013.0 |
| 20260506155524 | 15 | 256 | 0.0 | 8.0 | 0.00 | 0.00 | 0.00 | 92 | 1013.1 |
| 20260506155025 | 15 | 277 | 0.0 | 3.2 | 0.00 | 0.00 | 0.00 | 91 | 1013.0 |
| 20260506154531 | 16 | 268 | 1.6 | 4.8 | 0.00 | 0.00 | 0.00 | 91 | 1013.0 |
| 20260506154026 | 16 | 293 | 0.0 | 6.4 | 0.00 | 0.00 | 0.00 | 91 | 1013.0 |
| 20260506153524 | 16 | 275 | 1.6 | 12.9 | 0.00 | 0.00 | 0.00 | 91 | 1013.0 |
| 20260506153023 | 16 | 254 | 0.0 | 12.9 | 0.00 | 0.00 | 0.00 | 91 | 1013.1 |
| 20260506152525 | 16 | 240 | 3.2 | 12.9 | 0.00 | 0.00 | 0.00 | 92 | 1013.1 |
| 20260506152022 | 16 | 257 | 4.8 | 11.3 | 0.00 | 0.00 | 0.00 | 92 | 1013.1 |
| 20260506151522 | 15 | 283 | 3.2 | 6.4 | 0.00 | 0.00 | 0.00 | 92 | 1013.2 |
| 20260506151024 | 16 | 301 | 3.2 | 8.0 | 0.00 | 0.00 | 0.00 | 92 | 1013.2 |
| 20260506150520 | 16 | 287 | 3.2 | 8.0 | 0.00 | 0.00 | 0.00 | 92 | 1013.2 |
| 20260506150020 | 16 | 277 | 3.2 | 6.4 | 0.00 | 0.00 | 0.00 | 92 | 1013.2 |
| 20260506145520 | 16 | 293 | 3.2 | 6.4 | 0.00 | 0.00 | 0.00 | 92 | 1013.2 |
| 20260506145019 | 16 | 320 | 3.2 | 8.0 | 0.00 | 0.00 | 0.00 | 92 | 1013.3 |
| 20260506144518 | 16 | 289 | 3.2 | 8.0 | 0.00 | 0.00 | 0.00 | 93 | 1013.3 |
| 20260506144018 | 16 | 296 | 3.2 | 9.7 | 0.00 | 0.00 | 0.00 | 93 | 1013.4 |
| 20260506143519 | 16 | 284 | 1.6 | 8.0 | 0.00 | 0.00 | 0.00 | 93 | 1013.4 |
| 20260506143018 | 16 | 279 | 1.6 | 8.0 | 0.00 | 0.00 | 0.00 | 93 | 1013.4 |
| 20260506142515 | 15 | 297 | 3.2 | 8.0 | 0.00 | 0.00 | 0.00 | 93 | 1013.4 |
| 20260506142016 | 15 | 297 | 3.2 | 6.4 | 0.00 | 0.00 | 0.00 | 93 | 1013.5 |
| 20260506141515 | 15 | 271 | 0.0 | 4.8 | 0.00 | 0.00 | 0.00 | 93 | 1013.6 |
| 20260506141016 | 15 | 276 | 1.6 | 4.8 | 0.00 | 0.00 | 0.00 | 93 | 1013.6 |
| 20260506140520 | 15 | 269 | 0.0 | 1.6 | 0.00 | 0.00 | 0.00 | 92 | 1013.6 |
| 20260506140012 | 15 | 269 | 0.0 | 3.2 | 0.00 | 0.00 | 0.00 | 92 | 1013.6 |
| 20260506135511 | 15 | 269 | 0.0 | 3.2 | 0.00 | 0.00 | 0.00 | 92 | 1013.7 |
| 20260506135012 | 15 | 269 | 0.0 | 3.2 | 0.00 | 0.00 | 0.00 | 92 | 1013.7 |
| 20260506134513 | 15 | 268 | 0.0 | 3.2 | 0.00 | 0.00 | 0.00 | 91 | 1013.7 |
| 20260506134011 | 15 | 265 | 0.0 | 3.2 | 0.00 | 0.00 | 0.00 | 91 | 1013.7 |
| 20260506133511 | 15 | 264 | 0.0 | 0.0 | 0.00 | 0.00 | 0.00 | 91 | 1013.8 |
| 20260506133011 | 15 | 264 | 0.0 | 1.6 | 0.00 | 0.00 | 0.00 | 91 | 1013.8 |
| 20260506132509 | 16 | 264 | 0.0 | 1.6 | 0.00 | 0.00 | 0.00 | 91 | 1013.8 |
| 20260506132013 | 16 | 264 | 0.0 | 1.6 | 0.00 | 0.00 | 0.00 | 91 | 1013.9 |
| 20260506131510 | 16 | 264 | 0.0 | 1.6 | 0.00 | 0.00 | 0.00 | 91 | 1013.9 |
| 20260506131008 | 16 | 264 | 0.0 | 1.6 | 0.00 | 0.00 | 0.00 | 91 | 1013.9 |
| 20260506130511 | 16 | 264 | 0.0 | 1.6 | 0.00 | 0.00 | 0.00 | 91 | 1014.0 |
| 20260506130008 | 16 | 264 | 0.0 | 3.2 | 0.00 | 0.00 | 0.00 | 91 | 1014.1 |
| 20260506125505 | 16 | 264 | 0.0 | 3.2 | 0.00 | 0.00 | 0.00 | 92 | 1014.2 |
| 20260506125009 | 16 | 264 | 0.0 | 3.2 | 0.00 | 0.00 | 0.00 | 92 | 1014.3 |
| 20260506124505 | 16 | 262 | 0.0 | 0.0 | 0.00 | 0.00 | 0.00 | 91 | 1014.4 |
| 20260506124004 | 16 | 262 | 0.0 | 0.0 | 0.00 | 0.00 | 0.00 | 91 | 1014.4 |
| 20260506123504 | 16 | 262 | 0.0 | 3.2 | 0.00 | 0.00 | 0.00 | 91 | 1014.5 |
| 20260506123004 | 16 | 262 | 0.0 | 3.2 | 0.00 | 0.00 | 0.00 | 90 | 1014.6 |
| 20260506122505 | 16 | 262 | 0.0 | 1.6 | 0.00 | 0.00 | 0.00 | 90 | 1014.6 |
| 20260506122001 | 16 | 262 | 0.0 | 1.6 | 0.00 | 0.00 | 0.00 | 89 | 1014.7 |
| 20260506121500 | 16 | 262 | 0.0 | 4.8 | 0.00 | 0.00 | 0.00 | 88 | 1014.8 |
| 20260506121100 | 16 | 262 | 1.6 | 4.8 | 0.00 | 0.00 | 0.00 | 88 | 1014.8 |
| 20260506120600 | 16 | 298 | 0.0 | 0.0 | 0.00 | 0.00 | 0.00 | 88 | 1014.9 |
| 20260506120111 | 16 | 298 | 0.0 | 0.0 | 0.00 | 0.00 | 0.00 | 88 | 1014.9 |
| 20260506115600 | 16 | 298 | 0.0 | 0.0 | 0.00 | 0.00 | 0.00 | 88 | 1014.9 |
| 20260506115058 | 16 | 298 | 0.0 | 0.0 | 0.00 | 0.00 | 0.00 | 88 | 1015.0 |
| 20260506114623 | 16 | 298 | 0.0 | 0.0 | 0.00 | 0.00 | 0.00 | 88 | 1015.0 |
| 20260506114058 | 17 | 298 | 0.0 | 1.6 | 0.00 | 0.00 | 0.00 | 87 | 1015.1 |
| 20260506113557 | 17 | 298 | 0.0 | 1.6 | 0.00 | 0.00 | 0.00 | 87 | 1015.2 |
| 20260506113058 | 17 | 298 | 0.0 | 3.2 | 0.00 | 0.00 | 0.00 | 87 | 1015.2 |
| 20260506112559 | 17 | 298 | 0.0 | 3.2 | 0.00 | 0.00 | 0.00 | 87 | 1015.2 |
| 20260506112056 | 17 | 298 | 0.0 | 3.2 | 0.00 | 0.00 | 0.00 | 88 | 1015.2 |
| 20260506111557 | 17 | 309 | 0.0 | 3.2 | 0.00 | 0.00 | 0.00 | 88 | 1015.3 |
| 20260506111055 | 17 | 310 | 0.0 | 1.6 | 0.00 | 0.00 | 0.00 | 88 | 1015.4 |
| 20260506110555 | 17 | 310 | 0.0 | 0.0 | 0.00 | 0.00 | 0.00 | 88 | 1015.5 |
| 20260506110055 | 17 | 310 | 0.0 | 0.0 | 0.00 | 0.00 | 0.00 | 88 | 1015.5 |
| 20260506105558 | 17 | 310 | 0.0 | 1.6 | 0.00 | 0.00 | 0.00 | 88 | 1015.6 |
| 20260506105054 | 17 | 310 | 0.0 | 3.2 | 0.00 | 0.00 | 0.00 | 87 | 1015.7 |
| 20260506104554 | 17 | 310 | 0.0 | 3.2 | 0.00 | 0.00 | 0.00 | 87 | 1015.6 |
| 20260506104054 | 17 | 305 | 0.0 | 6.4 | 0.00 | 0.00 | 0.00 | 87 | 1015.7 |
| 20260506103554 | 17 | 305 | 1.6 | 6.4 | 0.00 | 0.00 | 0.00 | 86 | 1015.7 |
| 20260506103054 | 17 | 9 | 0.0 | 3.2 | 0.00 | 0.00 | 0.00 | 86 | 1015.8 |
| 20260506102554 | 17 | 103 | 1.6 | 3.2 | 0.00 | 0.00 | 0.00 | 86 | 1015.8 |
| 20260506102055 | 17 | 103 | 0.0 | 0.0 | 0.00 | 0.00 | 0.00 | 86 | 1015.8 |
| 20260506101554 | 17 | 103 | 0.0 | 0.0 | 0.00 | 0.00 | 0.00 | 86 | 1015.8 |
| 20260506101054 | 17 | 103 | 0.0 | 1.6 | 0.00 | 0.00 | 0.00 | 86 | 1015.8 |
| 20260506100553 | 17 | 103 | 0.0 | 3.2 | 0.00 | 0.00 | 0.00 | 86 | 1015.8 |
| 20260506100053 | 17 | 103 | 1.6 | 3.2 | 0.00 | 0.00 | 0.00 | 86 | 1015.8 |
| 20260506095554 | 17 | 103 | 0.0 | 3.2 | 0.00 | 0.00 | 0.00 | 86 | 1015.8 |
| 20260506095053 | 17 | 103 | 0.0 | 1.6 | 0.00 | 0.00 | 0.00 | 86 | 1015.8 |
| 20260506094553 | 17 | 103 | 0.0 | 0.0 | 0.00 | 0.00 | 0.00 | 86 | 1015.8 |
| 20260506094052 | 17 | 103 | 0.0 | 0.0 | 0.00 | 0.00 | 0.00 | 86 | 1015.8 |
| 20260506093554 | 17 | 103 | 0.0 | 0.0 | 0.00 | 0.00 | 0.00 | 85 | 1015.7 |
| 20260506093108 | 17 | 103 | 0.0 | 0.0 | 0.00 | 0.00 | 0.00 | 85 | 1015.8 |
| 20260506092552 | 17 | 103 | 0.0 | 0.0 | 0.00 | 0.00 | 0.00 | 85 | 1015.8 |
| 20260506092053 | 17 | 103 | 0.0 | 0.0 | 0.00 | 0.00 | 0.00 | 85 | 1015.7 |
| 20260506091551 | 17 | 103 | 0.0 | 0.0 | 0.00 | 0.00 | 0.00 | 85 | 1015.7 |
| 20260506091050 | 17 | 103 | 0.0 | 0.0 | 0.00 | 0.00 | 0.00 | 86 | 1015.8 |
| 20260506090550 | 17 | 103 | 0.0 | 0.0 | 0.00 | 0.00 | 0.00 | 86 | 1015.7 |
| 20260506090057 | 17 | 103 | 0.0 | 1.6 | 0.00 | 0.00 | 0.00 | 86 | 1015.7 |
| 20260506085551 | 17 | 103 | 0.0 | 3.2 | 0.00 | 0.00 | 0.00 | 86 | 1015.8 |
| 20260506085051 | 17 | 103 | 0.0 | 3.2 | 0.00 | 0.00 | 0.00 | 86 | 1015.8 |
| 20260506084551 | 17 | 103 | 0.0 | 0.0 | 0.00 | 0.00 | 0.00 | 86 | 1015.8 |
| 20260506084051 | 17 | 103 | 0.0 | 0.0 | 0.00 | 0.00 | 0.00 | 86 | 1015.8 |
| 20260506083550 | 17 | 103 | 0.0 | 0.0 | 0.00 | 0.00 | 0.00 | 86 | 1015.8 |
| 20260506083052 | 17 | 103 | 0.0 | 0.0 | 0.00 | 0.00 | 0.00 | 86 | 1015.7 |
| 20260506082554 | 17 | 103 | 0.0 | 0.0 | 0.00 | 0.00 | 0.00 | 86 | 1015.7 |
| 20260506082050 | 17 | 103 | 0.0 | 0.0 | 0.00 | 0.00 | 0.00 | 86 | 1015.7 |
| 20260506081550 | 17 | 103 | 0.0 | 0.0 | 0.00 | 0.00 | 0.00 | 86 | 1015.7 |
| 20260506081049 | 17 | 103 | 0.0 | 0.0 | 0.00 | 0.00 | 0.00 | 86 | 1015.7 |
| 20260506080549 | 17 | 103 | 0.0 | 0.0 | 0.00 | 0.00 | 0.00 | 86 | 1015.7 |
| 20260506073053 | 18 | 103 | 0.0 | 0.0 | 0.00 | 0.00 | 0.00 | 84 | 1015.4 |
| 20260506072551 | 18 | 103 | 0.0 | 0.0 | 0.00 | 0.00 | 0.00 | 84 | 1015.5 |
| 20260506072052 | 18 | 103 | 0.0 | 1.6 | 0.00 | 0.00 | 0.00 | 83 | 1015.5 |
| 20260506071547 | 18 | 103 | 0.0 | 1.6 | 0.00 | 0.00 | 0.00 | 83 | 1015.5 |
| 20260506071047 | 18 | 103 | 0.0 | 0.0 | 0.00 | 0.00 | 0.00 | 83 | 1015.4 |
| 20260506070546 | 18 | 103 | 0.0 | 1.6 | 0.00 | 0.00 | 0.00 | 82 | 1015.4 |
| 20260506062045 | 19 | 92 | 1.6 | 9.7 | 0.00 | 0.00 | 0.00 | 79 | 1015.4 |
| 20260506061557 | 19 | 84 | 3.2 | 9.7 | 0.00 | 0.00 | 0.00 | 79 | 1015.5 |
| 20260506061044 | 19 | 81 | 1.6 | 9.7 | 0.00 | 0.00 | 0.00 | 78 | 1015.5 |
| 20260506060545 | 20 | 82 | 1.6 | 4.8 | 0.00 | 0.00 | 0.00 | 78 | 1015.6 |
| 20260506051040 | 20 | 93 | 3.2 | 12.9 | 0.00 | 0.00 | 0.00 | 76 | 1015.6 |
| 20260506050540 | 20 | 65 | 1.6 | 8.0 | 0.00 | 0.00 | 0.00 | 76 | 1015.7 |
| 20260506045042 | 20 | 59 | 1.6 | 8.0 | 0.00 | 0.00 | 0.00 | 76 | 1015.9 |
| 20260506044539 | 20 | 105 | 1.6 | 8.0 | 0.00 | 0.00 | 0.00 | 76 | 1016.0 |
| 20260506044038 | 20 | 98 | 3.2 | 12.9 | 0.00 | 0.00 | 0.00 | 75 | 1016.0 |
| 20260506043538 | 21 | 80 | 4.8 | 12.9 | 0.00 | 0.00 | 0.00 | 75 | 1016.0 |
| 20260506043037 | 21 | 82 | 1.6 | 8.0 | 0.00 | 0.00 | 0.00 | 74 | 1016.0 |
| 20260506042537 | 21 | 84 | 3.2 | 8.0 | 0.00 | 0.00 | 0.00 | 74 | 1016.1 |
| 20260506042037 | 21 | 133 | 3.2 | 9.7 | 0.00 | 0.00 | 0.00 | 75 | 1016.1 |
| 20260506041536 | 21 | 113 | 1.6 | 11.3 | 0.00 | 0.00 | 0.00 | 74 | 1016.1 |
| 20260506041034 | 21 | 96 | 3.2 | 11.3 | 0.00 | 0.00 | 0.00 | 74 | 1016.1 |
| 20260506040538 | 21 | 96 | 3.2 | 11.3 | 0.00 | 0.00 | 0.00 | 74 | 1016.2 |
| 20260506040034 | 21 | 106 | 3.2 | 11.3 | 0.00 | 0.00 | 0.00 | 74 | 1016.2 |
| 20260506035533 | 21 | 97 | 4.8 | 11.3 | 0.00 | 0.00 | 0.00 | 74 | 1016.3 |
| 20260506035033 | 21 | 75 | 3.2 | 9.7 | 0.00 | 0.00 | 0.00 | 73 | 1016.4 |
| 20260506034533 | 21 | 77 | 1.6 | 11.3 | 0.00 | 0.00 | 0.00 | 73 | 1016.4 |
| 20260506034132 | 21 | 75 | 3.2 | 11.3 | 0.00 | 0.00 | 0.00 | 73 | 1016.5 |
| 20260506033530 | 21 | 91 | 3.2 | 11.3 | 0.00 | 0.00 | 0.00 | 73 | 1016.6 |
| 20260506033034 | 21 | 105 | 4.8 | 11.3 | 0.00 | 0.00 | 0.00 | 72 | 1016.7 |
| 20260506032529 | 21 | 67 | 3.2 | 9.7 | 0.00 | 0.00 | 0.00 | 73 | 1016.7 |
| 20260506032030 | 21 | 74 | 3.2 | 9.7 | 0.00 | 0.00 | 0.00 | 73 | 1016.8 |
| 20260506031528 | 21 | 170 | 3.2 | 9.7 | 0.00 | 0.00 | 0.00 | 72 | 1016.8 |
| 20260506031025 | 21 | 113 | 3.2 | 11.3 | 0.00 | 0.00 | 0.00 | 73 | 1016.8 |
| 20260506030529 | 21 | 83 | 3.2 | 11.3 | 0.00 | 0.00 | 0.00 | 74 | 1016.9 |
| 20260506030024 | 20 | 123 | 1.6 | 11.3 | 0.00 | 0.00 | 0.00 | 76 | 1017.0 |
| 20260506025526 | 20 | 88 | 4.8 | 11.3 | 0.00 | 0.00 | 0.00 | 75 | 1017.1 |
| 20260506025022 | 20 | 118 | 3.2 | 9.7 | 0.00 | 0.00 | 0.00 | 76 | 1017.1 |
| 20260506024523 | 20 | 123 | 3.2 | 11.3 | 0.00 | 0.00 | 0.00 | 76 | 1017.1 |
| 20260506024024 | 20 | 111 | 3.2 | 6.4 | 0.00 | 0.00 | 0.00 | 74 | 1017.2 |
| 20260506023522 | 20 | 119 | 3.2 | 8.0 | 0.00 | 0.00 | 0.00 | 73 | 1017.3 |
| 20260506023022 | 21 | 78 | 1.6 | 12.9 | 0.00 | 0.00 | 0.00 | 72 | 1017.4 |
| 20260506022520 | 21 | 92 | 3.2 | 12.9 | 0.00 | 0.00 | 0.00 | 71 | 1017.5 |
| 20260506022022 | 21 | 69 | 1.6 | 6.4 | 0.00 | 0.00 | 0.00 | 71 | 1017.5 |
| 20260506021519 | 21 | 210 | 1.6 | 6.4 | 0.00 | 0.00 | 0.00 | 71 | 1017.6 |
| 20260506021017 | 21 | 148 | 1.6 | 12.9 | 0.00 | 0.00 | 0.00 | 72 | 1017.7 |
| 20260506020516 | 20 | 83 | 4.8 | 12.9 | 0.00 | 0.00 | 0.00 | 72 | 1017.7 |
| 20260506020030 | 20 | 76 | 1.6 | 9.7 | 0.00 | 0.00 | 0.00 | 73 | 1017.9 |
| 20260506015515 | 20 | 68 | 1.6 | 11.3 | 0.00 | 0.00 | 0.00 | 71 | 1018.0 |
| 20260506015018 | 20 | 84 | 0.0 | 4.8 | 0.00 | 0.00 | 0.00 | 70 | 1018.1 |
| 20260506014514 | 21 | 76 | 1.6 | 9.7 | 0.00 | 0.00 | 0.00 | 69 | 1018.2 |
| 20260506014012 | 21 | 88 | 1.6 | 6.4 | 0.00 | 0.00 | 0.00 | 68 | 1018.3 |
| 20260506013514 | 21 | 111 | 0.0 | 6.4 | 0.00 | 0.00 | 0.00 | 68 | 1018.4 |
| 20260506013010 | 21 | 121 | 1.6 | 6.4 | 0.00 | 0.00 | 0.00 | 68 | 1018.4 |
| 20260506012511 | 21 | 202 | 1.6 | 8.0 | 0.00 | 0.00 | 0.00 | 68 | 1018.5 |
| 20260506012009 | 21 | 168 | 1.6 | 9.7 | 0.00 | 0.00 | 0.00 | 69 | 1018.6 |
| 20260506011507 | 20 | 95 | 1.6 | 9.7 | 0.00 | 0.00 | 0.00 | 69 | 1018.7 |
| 20260506011007 | 20 | 70 | 1.6 | 6.4 | 0.00 | 0.00 | 0.00 | 70 | 1018.9 |
| 20260506010505 | 20 | 149 | 1.6 | 11.3 | 0.00 | 0.00 | 0.00 | 70 | 1018.9 |
| 20260506010004 | 20 | 44 | 3.2 | 11.3 | 0.00 | 0.00 | 0.00 | 70 | 1019.0 |
| 20260506005502 | 20 | 111 | 3.2 | 9.7 | 0.00 | 0.00 | 0.00 | 69 | 1019.0 |
| 20260506005002 | 20 | 151 | 1.6 | 6.4 | 0.00 | 0.00 | 0.00 | 71 | 1019.2 |
| 20260506004501 | 20 | 100 | 1.6 | 8.0 | 0.00 | 0.00 | 0.00 | 70 | 1019.2 |
| 20260506004001 | 20 | 78 | 3.2 | 8.0 | 0.00 | 0.00 | 0.00 | 70 | 1019.2 |
| 20260506003600 | 20 | 120 | 1.6 | 6.4 | 0.00 | 0.00 | 0.00 | 68 | 1019.2 |
| 20260506003059 | 20 | 153 | 1.6 | 4.8 | 0.00 | 0.00 | 0.00 | 68 | 1019.2 |
| 20260506002558 | 20 | 152 | 1.6 | 4.8 | 0.00 | 0.00 | 0.00 | 69 | 1019.3 |
| 20260506002056 | 20 | 175 | 1.6 | 6.4 | 0.00 | 0.00 | 0.00 | 70 | 1019.3 |
| 20260506001606 | 20 | 109 | 1.6 | 6.4 | 0.00 | 0.00 | 0.00 | 68 | 1019.4 |
| 20260506001055 | 19 | 209 | 1.6 | 6.4 | 0.00 | 0.00 | 0.00 | 68 | 1019.5 |
| 20260506000555 | 19 | 217 | 1.6 | 6.4 | 0.00 | 0.00 | 0.00 | 68 | 1019.5 |
| 20260506000118 | 19 | 153 | 0.0 | 4.8 | 0.00 | 0.00 | 0.00 | 68 | 1019.5 |
| 20260505235550 | 19 | 107 | 0.0 | 6.4 | 0.00 | 0.00 | 0.00 | 69 | 1019.5 |
| 20260505235049 | 18 | 165 | 1.6 | 6.4 | 0.00 | 0.00 | 0.00 | 69 | 1019.5 |
| 20260505234548 | 18 | 146 | 1.6 | 8.0 | 0.00 | 0.00 | 0.00 | 70 | 1019.6 |
| 20260505234048 | 18 | 209 | 3.2 | 8.0 | 0.00 | 0.00 | 0.00 | 71 | 1019.5 |
| 20260505233544 | 18 | 135 | 3.2 | 9.7 | 0.00 | 0.00 | 0.00 | 71 | 1019.4 |
| 20260505233050 | 18 | 163 | 1.6 | 9.7 | 0.00 | 0.00 | 0.00 | 73 | 1019.5 |
| 20260505232545 | 17 | 134 | 1.6 | 9.7 | 0.00 | 0.00 | 0.00 | 72 | 1019.5 |
| 20260505232042 | 17 | 211 | 3.2 | 6.4 | 0.00 | 0.00 | 0.00 | 72 | 1019.6 |
| 20260505231550 | 17 | 146 | 3.2 | 6.4 | 0.00 | 0.00 | 0.00 | 72 | 1019.6 |
| 20260505231040 | 17 | 209 | 1.6 | 6.4 | 0.00 | 0.00 | 0.00 | 72 | 1019.6 |
| 20260505230539 | 17 | 158 | 3.2 | 6.4 | 0.00 | 0.00 | 0.00 | 73 | 1019.7 |
| 20260505230045 | 17 | 159 | 3.2 | 6.4 | 0.00 | 0.00 | 0.00 | 73 | 1019.7 |
| 20260505225537 | 17 | 132 | 1.6 | 6.4 | 0.00 | 0.00 | 0.00 | 74 | 1019.6 |
| 20260505225036 | 17 | 148 | 0.0 | 6.4 | 0.00 | 0.00 | 0.00 | 75 | 1019.6 |
| 20260505224544 | 16 | 153 | 1.6 | 4.8 | 0.00 | 0.00 | 0.00 | 75 | 1019.7 |
| 20260505224034 | 16 | 166 | 1.6 | 8.0 | 0.00 | 0.00 | 0.00 | 77 | 1019.6 |
| 20260505223532 | 16 | 176 | 1.6 | 8.0 | 0.00 | 0.00 | 0.00 | 78 | 1019.6 |